This is the latest recevied weather packets stored in our database for station/object DB8NZ-22. If no packets are shown the sender has not sent any weather packets the latest 10 day(s).
| Time | Temp. | Humidity | Pressure | Rain* | Wind** | Luminosity | Snow |
|---|---|---|---|---|---|---|---|
| 1788554031 | 27.22° C | 42% | 1014.3 hPa | - | - | - | - |
| 1788553130 | 27.22° C | 41% | 1014.1 hPa | - | - | - | - |
| 1788552230 | 27.22° C | 41% | 1013.9 hPa | - | - | - | - |
| 1788551330 | 27.78° C | 39% | 1013.8 hPa | - | - | - | - |
| 1788550430 | 27.78° C | 38% | 1013.8 hPa | - | - | - | - |
| 1788549544 | 28.33° C | 38% | 1013.5 hPa | - | - | - | - |
| 1788548630 | 28.33° C | 38% | 1013.4 hPa | - | - | - | - |
| 1788547730 | 28.33° C | 36% | 1013.2 hPa | - | - | - | - |
| 1788546830 | 28.89° C | 36% | 1013.2 hPa | - | - | - | - |
| 1788545930 | 28.89° C | 35% | 1013.2 hPa | - | - | - | - |
| 1788545030 | 29.44° C | 35% | 1013 hPa | - | - | - | - |
| 1788544130 | 30° C | 35% | 1012.9 hPa | - | - | - | - |
| 1788543230 | 30° C | 34% | 1012.8 hPa | - | - | - | - |
| 1788542330 | 30.56° C | 33% | 1012.6 hPa | - | - | - | - |
| 1788541429 | 31.67° C | 32% | 1012.7 hPa | - | - | - | - |
| 1788540529 | 33.89° C | 28% | 1012.7 hPa | - | - | - | - |
| 1788539629 | 35.56° C | 27% | 1012.7 hPa | - | - | - | - |
| 1788538729 | 36.67° C | 26% | 1012.6 hPa | - | - | - | - |
| 1788537829 | 33.89° C | 28% | 1012.7 hPa | - | - | - | - |
| 1788536929 | 35° C | 27% | 1012.6 hPa | - | - | - | - |
| 1788536029 | 36.67° C | 25% | 1012.5 hPa | - | - | - | - |
| 1788535129 | 35° C | 27% | 1012.6 hPa | - | - | - | - |
| 1788534229 | 37.22° C | 24% | 1012.5 hPa | - | - | - | - |
| 1788533329 | 38.33° C | 24% | 1012.6 hPa | - | - | - | - |
| 1788532429 | 37.78° C | 25% | 1013 hPa | - | - | - | - |
* Rain since midnight (hover to see other rain measurements)
** Current wind speed in m/s (hover to see current wind gust speed)